K0BL Weather Reports


time (UTC)temp
C
wind
direction
speed
KPH
gust
KPH
rain 1hr
cm
rain 24hr
cm
rain mn
cm
humidity
%
barometer
mb
20260506015045 12 217 3.2 3.2 0.00 0.00 0.00 59 1008.5
20260506014544 12 219 3.2 3.2 0.00 0.00 0.00 59 1008.4
20260506014044 12 227 3.2 3.2 0.00 0.00 0.00 59 1008.4
20260506013544 12 244 3.2 4.8 0.00 0.00 0.00 59 1008.3
20260506013041 12 244 3.2 4.8 0.00 0.00 0.00 58 1008.2
20260506012541 12 209 3.2 4.8 0.00 0.00 0.00 57 1008.2
20260506012042 12 221 3.2 4.8 0.00 0.00 0.00 58 1008.1
20260506011542 12 253 3.2 4.8 0.00 0.00 0.00 57 1008.1
20260506011041 12 207 3.2 4.8 0.00 0.00 0.00 57 1008.1
20260506010542 12 219 3.2 4.8 0.00 0.00 0.00 56 1008.0
20260506005542 12 235 3.2 4.8 0.00 0.00 0.00 56 1008.0
20260506005042 12 217 1.6 4.8 0.00 0.00 0.00 55 1008.0
20260506004543 13 237 1.6 4.8 0.00 0.00 0.00 55 1007.8
20260506004043 13 234 3.2 4.8 0.00 0.00 0.00 54 1007.8
20260506003042 13 46 3.2 4.8 0.00 0.00 0.00 54 1007.6
20260506002543 13 219 3.2 4.8 0.00 0.00 0.00 54 1007.7
20260506001537 13 225 3.2 6.4 0.00 0.00 0.00 52 1007.7
20260506001037 13 216 3.2 4.8 0.00 0.00 0.00 52 1007.8
20260506000534 13 211 3.2 4.8 0.00 0.00 0.00 53 1007.8
20260505235534 13 46 1.6 3.2 0.00 0.00 0.00 50 1007.8
20260505235034 13 47 3.2 8.0 0.00 0.00 0.00 51 1007.7
20260505234534 13 43 3.2 8.0 0.00 0.00 0.00 49 1007.7
20260505234035 13 328 4.8 8.0 0.00 0.00 0.00 50 1007.7
20260505233534 13 357 4.8 8.0 0.00 0.00 0.00 50 1007.7
20260505233034 13 196 4.8 9.7 0.00 0.00 0.00 49 1007.8
20260505232534 13 234 6.4 9.7 0.00 0.00 0.00 48 1007.6
20260505232032 14 204 3.2 9.7 0.00 0.00 0.00 48 1007.7
20260505231532 14 43 3.2 4.8 0.00 0.00 0.00 48 1007.7
20260505231032 14 116 1.6 4.8 0.00 0.00 0.00 47 1007.7
20260505230532 14 213 3.2 6.4 0.00 0.00 0.00 48 1007.7
20260505225532 14 138 3.2 4.8 0.00 0.00 0.00 48 1007.8
20260505225032 14 53 3.2 4.8 0.00 0.00 0.00 46 1007.8
20260505224023 14 215 3.2 4.8 0.00 0.00 0.00 47 1007.8
20260505223523 14 244 1.6 4.8 0.00 0.00 0.00 47 1007.8
20260505222523 14 41 3.2 4.8 0.00 0.00 0.00 47 1007.7
20260505221518 -17 38 3.2 6.4 0.00 0.00 0.00
20260505221016 13 55 3.2 6.4 0.00 0.00 0.00 48 1007.8
20260505220453 13 51 3.2 16.1 0.00 0.00 0.00 48 1007.8
20260505215954 13 79 3.2 16.1 0.00 0.00 0.00 48 1007.8
20260505215447 13 168 3.2 12.9 0.00 0.00 0.00 47 1007.9
20260505214948 14 161 4.8 11.3 0.00 0.00 0.00 47 1008.0
20260505214445 13 198 4.8 11.3 0.00 0.00 0.00 49 1008.0
20260505213945 13 233 6.4 12.9 0.00 0.00 0.00 46 1008.1
20260505213445 13 242 6.4 14.5 0.00 0.00 0.00 47 1008.1
20260505212944 13 241 6.4 14.5 0.00 0.00 0.00 46 1008.2
20260505212445 13 238 6.4 14.5 0.00 0.00 0.00 47 1008.3
20260505211945 13 229 6.4 16.1 0.00 0.00 0.00 46 1008.4
20260505210945 13 239 6.4 14.5 0.00 0.00 0.00 46 1008.4
20260505210445 13 239 6.4 16.1 0.00 0.00 0.00 46 1008.5
20260505205946 13 241 6.4 16.1 0.00 0.00 0.00 46 1008.5
20260505205445 13 237 6.4 14.5 0.00 0.00 0.00 47 1008.5
20260505204945 13 241 6.4 14.5 0.00 0.00 0.00 46 1008.7
20260505203943 13 245 6.4 14.5 0.00 0.00 0.00 46 1008.7
20260505203440 13 245 6.4 12.9 0.00 0.00 0.00 46 1008.8
20260505202440 13 239 6.4 14.5 0.00 0.00 0.00 46 1008.9
20260505201937 13 240 6.4 14.5 0.00 0.00 0.00 47 1008.9
20260505201437 13 243 6.4 16.1 0.00 0.00 0.00 46 1008.9
20260505200936 13 243 6.4 16.1 0.00 0.00 0.00 47 1009.0
20260505200437 13 233 6.4 14.5 0.00 0.00 0.00 46 1009.0
20260505195437 13 249 6.4 14.5 0.00 0.00 0.00 45 1009.0
20260505194935 13 250 6.4 20.9 0.00 0.00 0.00 46 1008.9
20260505194436 13 234 6.4 20.9 0.00 0.00 0.00 46 1009.0
20260505193936 13 37 6.4 14.5 0.00 0.00 0.00 46 1009.1
20260505193434 13 244 6.4 11.3 0.00 0.00 0.00 47 1009.1
20260505192934 13 235 6.4 11.3 0.00 0.00 0.00 47 1009.2
20260505192436 13 252 6.4 11.3 0.00 0.00 0.00 47 1009.2
20260505191935 13 283 6.4 11.3 0.00 0.00 0.00 46 1009.4
20260505191432 13 243 6.4 11.3 0.00 0.00 0.00 46 1009.4
20260505190932 13 255 6.4 11.3 0.00 0.00 0.00 48 1009.4
20260505190430 12 254 6.4 9.7 0.00 0.00 0.00 47 1009.4
20260505185929 13 58 6.4 9.7 0.00 0.00 0.00 47 1009.4
20260505185429 13 239 4.8 12.9 0.00 0.00 0.00 47 1009.4
20260505184929 13 258 6.4 12.9 0.00 0.00 0.00 46 1009.4
20260505184429 13 237 6.4 11.3 0.00 0.00 0.00 46 1009.5
20260505183929 13 255 6.4 11.3 0.00 0.00 0.00 47 1009.5
20260505183429 13 244 6.4 11.3 0.00 0.00 0.00 47 1009.8
20260505182929 13 295 6.4 11.3 0.00 0.00 0.00 47 1009.8
20260505182429 12 20 4.8 9.7 0.00 0.00 0.00 48 1009.6
20260505181929 12 2 4.8 8.0 0.00 0.00 0.00 48 1009.5
20260505181430 12 250 4.8 12.9 0.00 0.00 0.00 49 1009.5
20260505180929 12 296 4.8 12.9 0.00 0.00 0.00 50 1009.6
20260505180427 13 340 3.2 11.3 0.00 0.00 0.00 48 1009.5
20260505175927 12 257 3.2 11.3 0.00 0.00 0.00 48 1009.6
20260505174927 12 269 4.8 14.5 0.00 0.00 0.00 48 1010.0
20260505174427 12 280 3.2 8.0 0.00 0.00 0.00 49 1010.0
20260505173926 12 278 4.8 11.3 0.00 0.00 0.00 49 1009.8
20260505173427 12 293 4.8 11.3 0.00 0.00 0.00 49 1009.8
20260505172927 12 224 4.8 11.3 0.00 0.00 0.00 49 1010.0
20260505172427 12 285 3.2 11.3 0.00 0.00 0.00 49 1010.0
20260505171427 12 80 4.8 9.7 0.00 0.00 0.00 49 1010.1
20260505170928 12 264 4.8 9.7 0.00 0.00 0.00 48 1010.1
20260505170429 12 343 3.2 9.7 0.00 0.00 0.00 48 1010.3
20260505165925 12 71 4.8 11.3 0.00 0.00 0.00 49 1010.2
20260505165424 12 264 4.8 11.3 0.00 0.00 0.00 49 1010.1
20260505164925 12 49 3.2 6.4 0.00 0.00 0.00 49 1010.0
20260505164425 12 228 4.8 11.3 0.00 0.00 0.00 49 1010.0
20260505163422 12 287 4.8 9.7 0.00 0.00 0.00 48 1009.9
20260505162921 12 293 4.8 9.7 0.00 0.00 0.00 47 1009.9
20260505162419 13 51 3.2 8.0 0.00 0.00 0.00 47 1009.8
20260505160919 12 297 3.2 11.3 0.00 0.00 0.00 48 1009.9
20260505153235 11 46 4.8 8.0 0.00 0.00 0.00 55 1009.5
20260505152735 11 252 4.8 8.0 0.00 0.00 0.00 54 1009.5
20260505152235 11 271 3.2 8.0 0.00 0.00 0.00 54 1009.5
20260505151720 11 276 3.2 6.4 0.00 0.00 0.00 54 1009.5
20260505151147 11 260 4.8 6.4 0.00 0.00 0.00 55 1009.4
20260505150647 11 268 3.2 6.4 0.00 0.00 0.00 54 1009.5
20260505150140 11 159 3.2 6.4 0.00 0.00 0.00 53 1009.5
20260505140636 11 224 3.2 8.0 0.00 0.00 0.00 58 1008.7
20260505140136 11 256 3.2 9.7 0.00 0.00 0.00 56 1008.6
20260505130127 10 57 3.2 6.4 0.00 0.00 0.00 67 1007.9
20260505124628 9 67 3.2 6.4 0.00 0.00 0.00 69 1007.9
20260505124128 9 74 3.2 6.4 0.00 0.00 0.00 68 1007.9
20260505123627 8 72 1.6 4.8 0.00 0.00 0.00 70 1008.1
20260505123128 8 84 1.6 3.2 0.00 0.00 0.00 72 1008.4
20260505122628 8 104 1.6 4.8 0.00 0.00 0.00 72 1008.6
20260505122125 8 0 1.6 4.8 0.00 0.00 0.00 71 1008.7
20260505121625 8 0 1.6 3.2 0.00 0.00 0.00 74 1008.7
20260505121125 8 162 1.6 4.8 0.00 0.00 0.00 74 1008.7
20260505120625 8 0 0.0 4.8 0.00 0.00 0.00 75 1008.8
20260505120123 8 193 0.0 4.8 0.00 0.00 0.00 77 1008.9
20260505115623 8 184 0.0 3.2 0.00 0.00 0.00 77 1008.8
20260505115119 8 83 0.0 3.2 0.00 0.00 0.00 79 1008.9
20260505114619 8 0 1.6 3.2 0.00 0.00 0.00 79 1009.0
20260505114117 8 260 1.6 3.2 0.00 0.00 0.00 77 1009.0
20260505113117 8 218 1.6 3.2 0.00 0.00 0.00 73 1008.7
20260505112617 8 211 1.6 3.2 0.00 0.00 0.00 71 1008.7
20260505112118 8 188 0.0 3.2 0.00 0.00 0.00 72 1008.7
20260505111117 8 78 0.0 3.2 0.00 0.00 0.00 76 1008.9
20260505102107 9 97 1.6 4.8 0.00 0.00 0.00 67 1008.1
20260505101604 9 338 1.6 4.8 0.00 0.00 0.00 66 1008.0
20260505101104 9 277 1.6 4.8 0.00 0.00 0.00 63 1007.8
20260505100604 10 305 1.6 4.8 0.00 0.00 0.00 64 1007.4
20260505100048 10 91 1.6 4.8 0.00 0.00 0.00 64 1007.1
20260505095544 10 50 1.6 6.4 0.00 0.00 0.00 64 1006.9
20260505095042 10 27 1.6 8.0 0.00 0.00 0.00 61 1006.8
20260505094543 10 68 1.6 8.0 0.00 0.00 0.00 60 1006.9
20260505094042 10 45 3.2 6.4 0.00 0.00 0.00 60 1006.8
20260505093535 10 277 1.6 4.8 0.00 0.00 0.00 60 1006.9
20260505091443 10 8 3.2 6.4 0.00 0.00 0.00 60 1006.6
20260505090932 10 264 3.2 8.0 0.00 0.00 0.00 60 1006.6
20260505085309 11 51 3.2 6.4 0.00 0.00 0.00 55 1006.8
20260505084752 11 49 3.2 6.4 0.00 0.00 0.00 55 1006.8
20260505084240 11 275 3.2 6.4 0.00 0.00 0.00 55 1006.3
20260505083737 11 283 3.2 4.8 0.00 0.00 0.00 55 1006.4
20260505083239 11 351 3.2 4.8 0.00 0.00 0.00 54 1006.4
20260505082737 11 243 1.6 4.8 0.00 0.00 0.00 54 1006.6
20260505082232 11 223 3.2 6.4 0.00 0.00 0.00 55 1006.3
20260505081723 11 235 1.6 6.4 0.00 0.00 0.00 54 1005.9
20260505081223 11 0 1.6 4.8 0.00 0.00 0.00 54 1005.6
20260505080721 11 254 1.6 4.8 0.00 0.00 0.00 53 1006.1
20260505080212 11 252 1.6 4.8 0.00 0.00 0.00 53 1006.1
20260505075711 11 0 1.6 4.8 0.00 0.00 0.00 52 1006.5
20260505075202 11 0 3.2 9.7 0.00 0.00 0.00 52 1006.7
20260505074159 11 332 3.2 6.4 0.00 0.00 0.00 51 1006.8
20260505073659 11 283 3.2 6.4 0.00 0.00 0.00 51 1006.8
20260505073153 11 53 1.6 4.8 0.00 0.00 0.00 52 1006.7
20260505072153 11 245 4.8 16.1 0.00 0.00 0.00 52 1006.7
20260505071650 11 326 3.2 8.0 0.00 0.00 0.00 52 1006.5
20260505071146 11 30 3.2 6.4 0.00 0.00 0.00 53 1006.2
20260505065646 11 0 3.2 9.7 0.00 0.00 0.00 53 1005.4
20260505065145 11 32 3.2 9.7 0.00 0.00 0.00 52 1005.5
20260505064645 11 316 4.8 9.7 0.00 0.00 0.00 52 1005.6
20260505063145 12 316 4.8 12.9 0.00 0.00 0.00 51 1005.2
20260505062645 12 306 6.4 12.9 0.00 0.00 0.00 51 1005.1
20260505062145 12 288 6.4 16.1 0.00 0.00 0.00 50 1005.1
20260505061645 12 293 6.4 16.1 0.00 0.00 0.00 50 1004.8
20260505061145 12 312 6.4 14.5 0.00 0.00 0.00 50 1004.6
20260505060145 12 3 6.4 12.9 0.00 0.00 0.00 50 1004.0
20260505055643 12 313 4.8 14.5 0.00 0.00 0.00 50 1004.0
20260505055139 12 338 6.4 14.5 0.00 0.00 0.00 51 1003.7
20260505054637 13 316 8.0 14.5 0.00 0.00 0.00 50 1004.1
20260505054137 13 276 8.0 14.5 0.00 0.00 0.00 50 1004.0
20260505053136 13 288 8.0 14.5 0.00 0.00 0.00 50 1003.9
20260505051637 13 282 8.0 16.1 0.00 0.00 0.00 49 1003.6
20260505051137 13 275 8.0 16.1 0.00 0.00 0.00 49 1003.5
20260505050138 13 241 8.0 16.1 0.00 0.00 0.00 48 1003.3
20260505041129 15 292 12.9 20.9 0.00 0.00 0.00 45 1003.6
20260505040629 15 282 14.5 20.9 0.00 0.00 0.00 45 1003.7
20260505040129 15 291 14.5 27.4 0.00 0.00 0.00 44 1003.7
20260505035630 15 283 17.7 27.4 0.00 0.00 0.00 44 1003.7
20260505035129 15 255 19.3 27.4 0.00 0.00 0.00 43 1003.6
20260505034129 16 236 12.9 20.9 0.00 0.00 0.00 43 1003.4
20260505033627 16 33 11.3 20.9 0.00 0.00 0.00 42 1003.5
20260505033127 16 299 11.3 35.4 0.00 0.00 0.00 42 1003.4
20260505032124 16 256 9.7 24.1 0.00 0.00 0.00 41 1003.2
20260505031621 17 286 8.0 20.9 0.00 0.00 0.00 40 1002.9
20260505031121 17 350 8.0 12.9 0.00 0.00 0.00 40 1002.7
20260505030121 17 1 8.0 14.5 0.00 0.00 0.00 40 1002.6
20260505025621 17 353 8.0 19.3 0.00 0.00 0.00 39 1002.5
20260505025121 17 276 8.0 19.3 0.00 0.00 0.00 40 1002.5
20260505024621 17 298 6.4 14.5 0.00 0.00 0.00 40 1002.5
20260505024126 18 301 6.4 14.5 0.00 0.00 0.00 41 1002.3
20260505023621 18 299 6.4 14.5 0.00 0.00 0.00 42 1002.2
20260505023121 18 317 6.4 14.5 0.00 0.00 0.00 41 1002.0
20260505022621 18 320 6.4 14.5 0.00 0.00 0.00 41 1001.9
20260505022119 18 303 6.4 16.1 0.00 0.00 0.00 41 1001.8
20260505021618 19 61 6.4 16.1 0.00 0.00 0.00 40 1001.6
20260505021116 19 327 6.4 12.9 0.00 0.00 0.00 40 1001.4
20260505020616 19 333 6.4 12.9 0.00 0.00 0.00 40 1001.2
20260505020116 20 318 6.4 12.9 0.00 0.00 0.00 40 1001.1
20260505015616 20 346 4.8 12.9 0.00 0.00 0.00 39 1000.9